• Join FlightAware (Why Join?)
  • Login
  • US Flag 
02:37AM EDT


 

Airport Tracker/Info


-or-


 

Live Flight TrackerFlight Track Log ✈ EJA658 ✈ 03-May-2013 ✈ KBKL - KOMA

Flight Track Log - Related Links

Times and Time Zones

All times are in EDT time to prevent confusion due to time zone crossing. See the EJA658 flight status page for this flight to view local times or setup timezone preferences in your user account.

Time Position Orientation Groundspeed Altitude Reporting Facility
EDT Latitude Longitude Course Direction KTS MPH feet Rate Location/Type
02:21PM 41.5253 -81.6703 351° North 174 200 1,600  Level Cleveland Center
02:22PM 41.5939 -81.6853 351° North 256 295 2,200 600 Climbing Cleveland Center
02:23PM 41.6203 -81.7608 295° West 224 258 3,000 1,260 Climbing Cleveland Center
02:24PM 41.6192 -81.8608 269° West 259 298 5,000 2,460 Climbing Cleveland Center
02:27PM 41.5292 -82.0808 241° Southwest 306 352 11,800 2,640 Climbing Cleveland Center
02:28PM 41.4733 -82.1850 234° Southwest 342 394 14,100 2,220 Climbing Cleveland Center
02:29PM 41.4197 -82.2972 238° Southwest 354 407 16,300 2,100 Climbing Cleveland Center
02:30PM 41.3639 -82.4036 235° Southwest 354 407 18,300 2,100 Climbing Cleveland Center
02:31PM 41.3119 -82.5183 239° Southwest 361 415 20,600 2,220 Climbing Cleveland Center
02:32PM 41.2864 -82.6639 257° West 361 415 22,800 2,220 Climbing Cleveland Center
02:33PM 41.2692 -82.8042 261° West 380 437 25,100 2,220 Climbing Cleveland Center
02:34PM 41.2497 -82.9389 259° West 380 437 27,300 2,220 Climbing Cleveland Center
02:35PM 41.2700 -83.0750 281° West 385 443 29,600 2,100 Climbing Cleveland Center
02:36PM 41.3047 -83.1925 292° West 374 430 31,600 2,100 Climbing Cleveland Center
02:37PM 41.3164 -83.3258 277° West 369 425 33,800 2,160 Climbing Cleveland Center
02:38PM 41.3256 -83.4589 275° West 369 425 36,000 2,100 Climbing Cleveland Center
02:39PM 41.3328 -83.5836 274° West 357 411 38,100 1,620 Climbing Cleveland Center
02:40PM 41.3417 -83.7114 275° West 351 404 39,300 900 Climbing Cleveland Center
02:41PM 41.3486 -83.8417 274° West 351 404 40,000 300 Climbing Cleveland Center
02:42PM 41.3589 -83.9889 275° West 377 434 40,000  Level Cleveland Center
02:43PM 41.3689 -84.1417 275° West 404 465 40,000  Level Cleveland Center
02:43PM 41.3764 -84.2203 277° West 410 472 40,000  Level Chicago Center
02:44PM 41.3850 -84.3708 274° West 408 470 40,000  Level Chicago Center
02:45PM 41.3933 -84.5214 274° West 408 470 40,000  Level Chicago Center
02:46PM 41.4022 -84.6728 275° West 411 473 40,000  Level Chicago Center
02:47PM 41.4106 -84.8222 274° West 406 467 40,000  Level Chicago Center
02:48PM 41.4178 -84.9692 274° West 399 459 40,000  Level Chicago Center
02:49PM 41.4272 -85.1464 274° West 398 458 40,000  Level Chicago Center
02:50PM 41.4342 -85.2953 274° West 399 459 40,000  Level Chicago Center
02:51PM 41.4403 -85.4461 273° West 401 461 40,000  Level Chicago Center
02:52PM 41.4489 -85.5958 274° West 400 460 40,000  Level Chicago Center
02:53PM 41.4547 -85.7431 273° West 395 455 40,000  Level Chicago Center
02:54PM 41.4622 -85.8894 274° West 394 453 40,000  Level Chicago Center
02:55PM 41.4686 -86.0356 273° West 395 455 40,000  Level Chicago Center
02:56PM 41.4747 -86.1825 273° West 397 457 40,000  Level Chicago Center
02:57PM 41.4828 -86.3625 273° West 404 465 40,000  Level Chicago Center
02:58PM 41.4878 -86.5106 273° West 402 463 40,000  Level Chicago Center
03:00PM 41.4942 -86.6572 273° West 399 459 40,000  Level Chicago Center
03:01PM 41.5000 -86.8128 273° West 399 459 40,000  Level Chicago Center
03:02PM 41.5061 -86.9600 273° West 399 459 40,000  Level Chicago Center
03:03PM 41.5097 -87.1061 272° West 398 458 40,000  Level Chicago Center
03:04PM 41.5164 -87.2833 273° West 402 463 40,000  Level Chicago Center
03:05PM 41.5217 -87.4303 273° West 400 460 40,000  Level Chicago Center
03:06PM 41.5261 -87.5786 272° West 404 465 40,000  Level Chicago Center
03:07PM 41.5306 -87.7286 272° West 409 471 40,000  Level Chicago Center
03:08PM 41.5356 -87.8756 273° West 404 465 40,000  Level Chicago Center
03:09PM 41.5394 -88.0547 272° West 413 475 40,000  Level Chicago Center
03:10PM 41.5439 -88.2033 272° West 413 475 40,000  Level Chicago Center
03:11PM 41.5461 -88.3536 271° West 414 476 40,000  Level Chicago Center
03:12PM 41.5464 -88.5011 270° West 404 465 40,000  Level Chicago Center
03:13PM 41.5472 -88.6775 270° West 400 460 40,000  Level Chicago Center
03:14PM 41.5481 -88.8258 270° West 402 463 40,000  Level Chicago Center
03:15PM 41.5481 -88.9717 270° West 399 459 40,000  Level Chicago Center
03:16PM 41.5478 -89.1192 270° West 400 460 40,000  Level Chicago Center
03:17PM 41.5483 -89.2658 270° West 398 458 40,000  Level Chicago Center
03:18PM 41.5481 -89.4461 270° West 405 466 40,000  Level Chicago Center
03:19PM 41.5472 -89.5819 270° West 410 472 40,000  Level Chicago Center
03:20PM 41.5458 -89.7339 269° West 411 473 40,000  Level Chicago Center
03:21PM 41.5456 -89.9153 270° West 410 472 40,000  Level Chicago Center
03:22PM 41.5486 -90.0639 272° West 406 467 40,000  Level Chicago Center
03:23PM 41.5514 -90.2136 271° West 405 466 40,000  Level Chicago Center
03:24PM 41.5517 -90.3658 270° West 411 473 40,000  Level Chicago Center
03:25PM 41.5542 -90.5128 271° West 403 464 40,000  Level Chicago Center
03:26PM 41.5569 -90.6786 271° West 406 467 40,000  Level Chicago Center
03:27PM 41.5567 -90.8353 270° West 417 480 40,000 -360 Level Chicago Center
03:28PM 41.5581 -90.9881 271° West 416 479 39,300 -960 Descending Chicago Center
03:29PM 41.5592 -91.1711 271° West 415 478 38,100 -660 Descending Chicago Center
03:31PM 41.5603 -91.3242 271° West 415 478 38,000 -60 Descending Chicago Center
03:32PM 41.5600 -91.4811 270° West 423 487 38,000  Level Chicago Center
03:33PM 41.5606 -91.6361 270° West 419 482 38,000  Level Chicago Center
03:34PM 41.5614 -91.7919 270° West 420 483 38,000  Level Chicago Center
03:35PM 41.5606 -91.9478 270° West 422 486 38,000  Level Chicago Center
03:36PM 41.5611 -92.1317 270° West 416 479 38,000  Level Chicago Center
03:37PM 41.5594 -92.2869 269° West 419 482 38,000  Level Chicago Center
03:38PM 41.5594 -92.4425 270° West 420 483 38,000  Level Chicago Center
03:39PM 41.5586 -92.5983 270° West 423 487 38,000 -420 Level Chicago Center
03:40PM 41.5567 -92.7608 269° West 420 483 37,200 -840 Descending Chicago Center
03:41PM 41.5508 -92.9181 267° West 423 487 36,300 -1,020 Descending Minneapolis Center
03:42PM 41.5358 -93.0739 263° West 425 489 35,200 -1,140 Descending Minneapolis Center
03:43PM 41.5208 -93.2311 263° West 430 495 34,000 -600 Descending Minneapolis Center
03:44PM 41.5133 -93.4267 267° West 440 506 34,000  Level Minneapolis Center
03:45PM 41.5158 -93.5906 271° West 444 511 34,000 -540 Level Minneapolis Center
03:46PM 41.5161 -93.7564 270° West 449 517 33,000 -1,620 Descending Minneapolis Center
03:47PM 41.5169 -93.9253 270° West 456 525 30,700 -2,400 Descending Minneapolis Center
03:48PM 41.5178 -94.0928 270° West 455 524 28,100 -2,700 Descending Minneapolis Center
03:49PM 41.5156 -94.2897 269° West 457 526 25,200 -2,340 Descending Minneapolis Center
03:50PM 41.5175 -94.4550 271° West 448 516 23,400 -1,800 Descending Minneapolis Center
03:51PM 41.5167 -94.6122 270° West 431 496 21,600 -1,800 Descending Minneapolis Center
03:52PM 41.5156 -94.7661 269° West 420 483 19,800 -1,920 Descending Minneapolis Center
03:53PM 41.5278 -94.8561 280° West 413 475 18,900 -1,920 Descending Minneapolis Center
03:53PM 41.5144 -94.9264 256° West 413 475 17,900 -1,680 Descending Minneapolis Center
03:54PM 41.5242 -95.0908 275° West 387 445 16,200 -1,860 Descending Minneapolis Center
03:55PM 41.5083 -95.2208 261° West 357 411 14,200 -2,700 Descending Minneapolis Center
03:56PM 41.4839 -95.3467 256° West 348 400 10,800 -2,820 Descending Minneapolis Center
03:57PM 41.4539 -95.4561 250° West 301 346 8,500 -2,160 Descending Minneapolis Center
03:58PM 41.4233 -95.5600 249° West 263 303 6,500 -1,620 Descending Minneapolis Center
03:59PM 41.3958 -95.6467 247° West 260 299 5,200 -720 Descending Minneapolis Center
04:00PM 41.3619 -95.7161 237° Southwest 262 302 5,000 -120 Descending Minneapolis Center
04:01PM 41.3111 -95.6928 161° South 202 232 5,000  Level Minneapolis Center
04:02PM 41.2550 -95.6483 149° Southeast 219 252 5,000 -180 Level Minneapolis Center
04:03PM 41.1997 -95.6072 151° Southeast 221 254 4,700 -540 Descending Minneapolis Center
04:04PM 41.1511 -95.6197 191° South 214 246 4,000 -540 Descending Minneapolis Center
04:05PM 41.1608 -95.6719 284° West 158 182 3,800 -540 Descending Minneapolis Center
04:06PM 41.1844 -95.7411 294° West 206 237 3,100 -480 Descending Minneapolis Center
04:07PM 41.2153 -95.7958 307° West 188 216 2,900 -480 Descending Minneapolis Center
04:09PM 41.2528 -95.8447 316° Northwest 180 207 2,100 -780 Descending Minneapolis Center
04:09PM 41.2789 -95.8714 322° Northwest 116 133 1,400 -720 Descending Minneapolis Center
04:10PM 41.2819 -95.8711 North 152 175 1,400 -360 Level Minneapolis Center
04:11PM 41.3100 -95.8967 326° Northwest 133 153 1,000 -420 Descending Minneapolis Center